Flag for U.S.A. Weather past 2 weeks in Pasco, Washington, U.S.A.

25 °F

Mostly cloudy.

Feels Like: 25 °F
Forecast: 14 / 27 °F
Wind: No wind

Location: Tri-Cities Airport

Current Time: Nov 29, 2015 at 6:24:23 AM

Latest Report: Nov 29, 2015 at 5:53 AM

Visibility: 10 mi

Pressure: 30.46 "Hg

Humidity: 85%

Dew point: 21 °F

Location of PascoLocation

Historic Weather in Pasco — Graph


Pasco temperature yesterday

Maximum temperature yesterday: 24 °F (at 8:53 PM)
Minimum temperature yesterday: 20 °F (at 12:04 AM)
Average temperature yesterday: 22 °F

Past Weeks' High & Low Weather Summary

High65 °F (Nov 17, 12:53 PM)100% (Nov 20, 10:00 PM)30.66 "Hg (Nov 20, 10:00 PM)
Low14 °F (Nov 27, 6:53 AM)33% (Nov 16, 11:53 AM)29.41 "Hg (Nov 15, 6:53 AM)
Average36 °F77%30.19 "Hg
* Reported Nov 14 4:53 AM — Nov 29 4:53 AM, Pasco, Weather by CustomWeather, © 2015

Note: Actual official high and low records may vary slightly from our data, if they occured in-between our weather recording intervals... More about our weather records


Pasco weather history for previous 24 hours

Time TempWeatherWind HumidityBarometerVisibility
4:53 AM
Sun, Nov 29
24 °FOvercast.3 mph84%30.46 "Hg10 mi
3:59 AM25 °FMostly cloudy.3 mph85%30.44 "Hg10 mi
2:53 AM25 °FOvercast.5 mph85%30.46 "Hg10 mi
1:53 AM24 °FOvercast.No wind88%30.47 "Hg10 mi
12:53 AM24 °FMostly cloudy.3 mph84%30.46 "Hg10 mi
12:01 AM24 °FMostly cloudy.5 mph84%30.45 "Hg10 mi
11:53 PM
Sat, Nov 28
24 °FLow clouds.5 mph84%30.46 "Hg10 mi
10:03 PM24 °FLow clouds.3 mph88%30.45 "Hg10 mi
8:53 PM24 °FIce fog.3 mph88%30.46 "Hg5 mi
7:53 PM23 °FIce fog.3 mph88%30.46 "Hg5 mi
7:01 PM23 °FIce fog.3 mph88%30.44 "Hg5 mi
6:01 PM23 °FIce fog.5 mph88%30.45 "Hg5 mi
4:53 PM23 °FIce fog.7 mph88%30.47 "Hg4 mi
3:53 PM23 °FIce fog.8 mph88%30.47 "Hg3 mi
2:53 PM23 °FIce fog.7 mph88%30.48 "Hg4 mi
1:53 PM23 °FLow clouds.6 mph88%30.49 "Hg10 mi
12:53 PM22 °FLow clouds.6 mph89%30.51 "Hg10 mi
12:00 PM23 °FLow clouds.8 mph88%30.50 "Hg10 mi
10:53 AM22 °FIce fog.5 mph89%30.54 "Hg2 mi
10:03 AM23 °FIce fog.7 mph88%30.53 "Hg2 mi
8:53 AM23 °FIce fog.5 mph88%30.54 "Hg1 mi
8:00 AM22 °FIce fog.No wind85%30.52 "Hg1 mi
6:53 AM20 °FIce fog.7 mph89%30.53 "Hg0 mi
Weather by CustomWeather, © 2015

See weather overviewHow to use our weather pages